This is the latest recevied weather packets stored in our database for station/object IZ1RFL-3. If no packets are shown the sender has not sent any weather packets the latest 10 day(s).
| Time | Temp. | Humidity | Pressure | Rain* | Wind** | Luminosity | Snow |
|---|---|---|---|---|---|---|---|
| 1778105767 | 14.44° C | 77% | 1011.6 hPa | - | - | - | - |
| 1778104867 | 14.44° C | 78% | 1011.6 hPa | - | - | - | - |
| 1778103967 | 14.44° C | 77% | 1011.4 hPa | - | - | - | - |
| 1778103067 | 15.56° C | 74% | 1011.3 hPa | - | - | - | - |
| 1778102167 | 15° C | 73% | 1011.4 hPa | - | - | - | - |
| 1778101267 | 15° C | 75% | 1011.4 hPa | - | - | - | - |
| 1778100367 | 15.56° C | 73% | 1011.1 hPa | - | - | - | - |
| 1778099467 | 15.56° C | 73% | 1010.7 hPa | - | - | - | - |
| 1778098567 | 15.56° C | 72% | 1010.6 hPa | - | - | - | - |
| 1778097667 | 16.11° C | 70% | 1010.3 hPa | - | - | - | - |
| 1778096767 | 16.11° C | 66% | 1009.8 hPa | - | - | - | - |
| 1778095868 | 16.67° C | 67% | 1009.4 hPa | - | - | - | - |
| 1778094967 | 16.11° C | 68% | 1009.1 hPa | - | - | - | - |
| 1778094067 | 16.67° C | 66% | 1009 hPa | - | - | - | - |
| 1778093167 | 17.22° C | 67% | 1008.7 hPa | - | - | - | - |
| 1778092267 | 17.22° C | 64% | 1008.4 hPa | - | - | - | - |
| 1778091367 | 17.78° C | 62% | 1008.3 hPa | - | - | - | - |
| 1778090467 | 18.33° C | 60% | 1008.1 hPa | - | - | - | - |
| 1778089567 | 18.89° C | 59% | 1008 hPa | - | - | - | - |
| 1778088667 | 18.89° C | 61% | 1007.7 hPa | - | - | - | - |
| 1778087767 | 18.33° C | 60% | 1007.7 hPa | - | - | - | - |
| 1778086867 | 18.33° C | 57% | 1007.3 hPa | - | - | - | - |
| 1778085967 | 18.33° C | 56% | 1007 hPa | - | - | - | - |
| 1778085067 | 18.33° C | 57% | 1007 hPa | - | - | - | - |
| 1778084167 | 18.89° C | 54% | 1006.9 hPa | - | - | - | - |
* Rain since midnight (hover to see other rain measurements)
** Current wind speed in m/s (hover to see current wind gust speed)